This demonstration page uses our WeatherBlox Daily Observations layout. Learn more.

Left ArrowRight Arrow

39.08367, -84.50855

Hourly Observations for November 14, 2015

Temp ( °F °C ) Dew Point ( °F °C ) Humidity (%) Winds ( mph kmh ) Pressure ( in mb ) Visibility ( mi km ) Precip ( " mm )
12:53 am 00:53 Clear 34 1.1 24 -4.4 67 67 S 7 11 30.28 1025 10 16 0.00 0.00
1:53 am 01:53 Clear 34 1.1 23 -5 64 64 SSW 7 11 30.29 1026 10 16 0.00 0.00
2:53 am 02:53 Clear 35 1.7 23 -5 61 61 SW 5 7 30.31 1026 10 16 0.00 0.00
3:53 am 03:53 Clear 34 1.1 23 -5 64 64 WSW 3 6 30.32 1027 10 16 0.00 0.00
4:53 am 04:53 Clear 32 0 26 -3.3 79 79 SSW 3 6 30.34 1028 10 16 0.00 0.00
5:53 am 05:53 Clear 28 -2.2 26 -3.3 92 92 Calm 30.36 1028 10 16 0.00 0.00
6:53 am 06:53 Clear 27 -2.8 25 -3.9 92 92 Calm 30.38 1029 10 16 0.00 0.00
7:53 am 07:53 Sunny 28 -2.2 26 -3.3 92 92 Calm 30.40 1030 10 16 0.00 0.00
8:53 am 08:53 Sunny 34 1.1 30 -1.1 85 85 Calm 30.43 1031 10 16 0.00 0.00
9:53 am 09:53 Sunny 41 5 27 -2.8 57 57 WSW 5 7 30.44 1031 10 16 0.00 0.00
10:53 am 10:53 Sunny 44 6.7 28 -2.2 53 53 W 3 6 30.44 1031 10 16 0.00 0.00
11:53 am 11:53 Sunny 48 8.9 27 -2.8 44 44 VRB 6 9 30.42 1030 10 16 0.00 0.00
12:53 pm 12:53 Sunny 50 10 27 -2.8 41 41 VRB 5 7 30.41 1030 10 16 0.00 0.00
1:53 pm 13:53 Sunny 51 10.6 25 -3.9 36 36 VRB 3 6 30.39 1029 10 16 0.00 0.00
2:53 pm 14:53 Sunny 53 11.7 26 -3.3 35 35 WSW 5 7 30.39 1029 10 16 0.00 0.00
3:53 pm 15:53 Sunny 53 11.7 27 -2.8 37 37 S 6 9 30.38 1029 10 16 0.00 0.00
4:53 pm 16:53 Sunny 51 10.6 27 -2.8 39 39 SSW 6 9 30.38 1029 10 16 0.00 0.00
5:53 pm 17:53 Clear 45 7.2 29 -1.7 54 54 Calm 30.39 1029 10 16 0.00 0.00
6:53 pm 18:53 Clear 41 5 33 0.6 73 73 Calm 30.40 1029 10 16 0.00 0.00
7:53 pm 19:53 Clear 39 3.9 33 0.6 79 79 Calm 30.41 1030 10 16 0.00 0.00
8:53 pm 20:53 Clear 37 2.8 31 -0.6 79 79 Calm 30.40 1030 10 16 0.00 0.00
9:53 pm 21:53 Clear 35 1.7 32 0 89 89 Calm 30.41 1030 10 16 0.00 0.00
10:53 pm 22:53 Clear 33 0.6 30 -1.1 89 89 Calm 30.40 1030 10 16 0.00 0.00
11:53 pm 23:53 Clear 33 0.6 32 0 96 96 Calm 30.40 1030 10 16 0.00 0.00

Powered by AerisWeather